Temperature
12 12 12 12 12 12 12 12 12 12 12 12 12 12 12 12 12 12 12 12 11 11 11 11 11 11 11 11 11 11 11 11 11 11 11 11 11 11
12 12 12 12 12 12 12 12 12 11 11 11 11 11 11 12 11 11 11 11 11 11 11 11 11 11 11 11 11 11 11 11 11 10 11 11 10 10
12 11 11 11 11 11 11 11 11 11 11 11 11 11 11 11 11 11 11 11 11 11 11 11 11 11 10 10 10 10 10 10 10 10 10 10 10 10
11 11 11 11 11 11 11 11 11 11 11 11 11 11 11 11 10 10 10 10 10 10 10 10 10 10 10 10 10 10 10 10 10 10 10 10 10 10
11 11 11 11 11 11 10 10 10 10 10 10 10 10 10 10 10 10 10 10 10 10 10 10 10 10 10 10 10 10 10 10 9 9 9 9 9 10
10 10 10 10 10 10 10 10 10 10 10 10 10 10 10 10 9 9 10 10 9 9 9 9 9 9 9 9 9 9 9 9 9 9 9 9 9 9
10 10 10 10 10 10 10 10 9 9 9 9 9 9 9 9 9 9 9 9 9 9 9 9 9 9 9 9 9 9 9 9 9 9 9 9 9 9
10 10 10 9 9 9 9 9 9 9 9 9 9 8 9 9 9 9 9 8 8 8 8 8 8 8 8 8 8 9 9 8 8 8 8 8 8 8
9 9 9 9 9 9 9 9 9 9 8 8 8 8 8 8 8 8 8 8 8 8 8 8 8 8 8 8 8 8 8 8 8 8 8 8 8 8
9 9 9 8 8 8 9 9 9 8 8 8 8 8 8 8 8 8 8 8 8 8 7 7 8 8 8 8 8 8 8 8 8 8 8 8 8 8
8 8 8 8 8 8 8 8 8 8 8 8 8 8 8 7 7 7 7 7 7 7 7 7 7 7 8 8 7 7 7 7 7 7 7 8 8 8
7 7 7 7 7 7 8 8 8 8 8 8 7 7 7 7 7 7 7 7 7 7 7 7 7 7 7 7 7 7 7 7 7 7 7 7 7 7
7 7 7 7 7 7 7 7 7 7 7 7 7 7 7 7 7 7 7 7 7 7 7 6 6 6 6 6 7 7 7 7 7 7 7 7 7 7
6 6 6 6 6 7 7 7 7 7 7 7 7 7 7 7 7 7 6 6 6 6 6 6 6 6 6 6 6 6 6 6 6 6 6 6 6 6
6 6 6 6 6 6 6 6 6 6 6 6 6 6 6 6 6 6 6 6 6 6 6 6 6 6 6 6 6 6 6 6 6 6 6 6 6 6
5 5 5 5 5 5 5 5 5 6 6 6 6 6 6 6 6 6 6 6 6 6 6 6 6 5 5 6 6 5 5 5 5 5 5 5 5 5
4 4 4 5 5 5 5 5 5 5 5 5 5 5 5 5 5 5 5 5 5 5 6 6 5 5 5 5 5 5 5 5 5 5 5 5 5 5
4 4 4 4 4 4 4 4 4 4 4 4 4 5 5 5 5 5 5 5 5 5 5 5 5 5 5 5 5 5 5 5 5 4 4 4 5 5
3 3 3 3 3 3 3 3 3 4 4 4 4 4 4 4 4 4 4 4 4 4 4 4 4 4 4 4 4 4 4 4 4 4 4 4 4 4
2 2 2 2 2 2 2 3 3 3 3 3 3 3 3 3 3 3 4 4 4 3 4 4 4 4 4 3 3 4 4 4 4 4 4 4 4 4
2 2 2 2 2 2 2 2 2 2 2 3 3 3 3 3 3 3 3 3 3 3 3 3 3 3 3 3 3 3 3 3 3 3 3 3 3 3
1 1 1 1 1 1 1 1 1 2 2 2 2 2 2 2 2 2 2 2 2 2 2 2 2 2 2 2 2 2 3 3 3 3 3 3 2 2
1 0 0 1 1 1 1 1 1 1 1 1 1 1 1 1 2 2 2 2 2 2 2 2 2 2 2 2 2 2 2 2 2 2 2 2 2 2
Wind_Speed
1 1 1 0 1 1 1 2 3 1 2 2 2 2 3 2 2 2 2 2 3 3 2 2 2 3 3 4 4 4 4 4 4 3 3 2 3 3
1 1 0 0 0 1 1 1 2 3 2 2 2 2 2 2 3 2 2 2 4 4 3 2 2 2 3 3 3 4 4 3 3 3 2 2 2 3
0 1 1 0 1 0 1 1 1 2 2 2 1 2 2 2 3 3 2 2 2 4 4 3 3 2 3 3 3 4 4 4 4 3 3 3 3 2
0 1 1 1 1 1 1 1 1 2 2 1 1 1 1 1 2 2 2 2 1 2 3 3 4 4 4 4 4 4 4 4 4 3 3 3 4 3
1 1 1 1 1 1 1 1 1 1 1 1 1 1 1 2 2 2 2 2 1 2 2 3 3 3 4 4 4 4 4 4 4 4 4 3 3 3
1 1 1 2 2 2 2 2 2 1 1 1 0 1 1 1 1 1 2 2 2 2 2 2 3 3 4 5 5 4 4 4 4 4 3 3 3 3
1 1 1 2 2 2 2 2 2 2 1 1 0 0 0 0 1 0 1 2 2 1 1 2 2 2 3 5 4 5 4 4 3 4 3 3 3 3
1 2 2 1 1 1 2 2 3 3 3 2 1 1 2 1 0 1 0 1 2 2 1 2 1 2 3 3 4 4 4 4 4 4 4 4 4 4
1 1 1 2 2 1 2 2 2 3 4 4 3 3 3 3 2 1 1 1 2 1 0 2 2 2 4 4 4 4 4 4 4 4 4 3 3 4
1 1 2 2 1 1 1 0 1 1 2 2 4 4 3 3 3 3 3 1 1 1 1 2 2 3 3 4 5 4 4 4 4 4 4 4 4 4
1 1 1 2 2 1 1 1 1 2 1 1 1 1 1 2 3 2 2 1 1 2 1 1 2 2 2 3 4 5 4 4 4 4 4 3 3 3
2 2 2 2 3 0 1 2 2 2 1 1 1 2 1 1 3 3 4 3 1 2 2 2 1 1 2 2 2 3 4 4 4 4 4 3 2 1
1 2 3 4 3 2 1 2 3 2 2 2 1 1 0 0 1 2 3 3 3 3 3 2 2 1 2 2 2 2 2 3 3 3 3 3 2 1
1 2 2 4 4 3 1 2 2 0 1 1 0 1 1 2 2 2 3 3 4 4 5 4 2 3 2 2 3 2 2 2 2 2 3 4 3 3
1 2 3 4 5 4 3 3 2 1 1 1 1 2 2 2 1 1 1 1 1 2 3 4 3 3 3 3 3 2 2 2 2 2 2 2 2 1
2 3 5 5 4 4 4 3 2 1 0 1 2 1 1 1 1 1 2 1 1 2 3 3 3 3 3 4 4 4 3 2 2 2 2 2 2 2
1 2 3 3 3 3 2 2 2 1 1 1 1 1 1 1 2 1 1 1 1 2 2 2 2 1 2 3 3 4 3 3 3 2 1 2 3 3
2 2 2 2 3 3 2 2 2 2 2 1 1 1 1 2 2 2 1 1 2 2 2 1 0 1 1 2 3 4 3 3 2 2 2 2 4 3
2 1 2 2 2 3 3 3 2 2 2 1 1 2 2 2 2 2 2 2 2 2 2 1 1 1 2 3 3 3 3 3 2 2 2 3 4 4
1 1 2 2 2 3 3 3 3 2 2 2 2 2 2 2 2 2 2 2 2 2 2 2 2 2 3 3 3 3 4 3 2 3 3 3 3 4
2 2 2 3 3 3 3 3 3 2 2 2 2 2 2 2 3 3 2 3 2 2 3 3 4 3 2 0 1 2 3 3 3 3 2 2 3 2
2 2 3 3 3 3 3 3 3 3 3 2 2 2 2 2 3 3 2 2 3 3 3 3 3 2 1 2 3 3 3 3 4 4 3 3 2 3
3 3 3 3 3 3 3 3 3 3 3 3 3 3 2 2 2 2 3 3 2 3 2 2 2 2 2 3 3 3 4 4 3 3 3 5 5 6
Wind_Direction
153 159 161 191 169 167 155 158 157 199 275 289 299 316 331 335 346 351 334 4 27 22 13 14 21 14 1 358 3 6 10 13 9 6 17 27 31 29
159 139 168 163 144 145 173 171 159 171 217 259 261 305 326 342 351 353 339 14 33 29 21 12 4 355 347 355 8 4 359 360 354 359 355 356 9 12
151 166 206 174 142 156 145 134 141 148 191 273 296 327 346 350 351 352 356 12 21 28 27 24 21 12 5 3 5 5 4 356 350 347 346 340 330 325
192 184 225 184 165 181 158 177 185 173 171 236 301 332 316 330 347 355 7 18 25 26 22 21 29 23 15 15 12 9 3 357 354 347 339 341 338 324
198 200 233 191 207 199 187 197 206 164 133 170 278 315 328 348 2 3 2 2 10 11 14 11 15 15 12 5 360 355 353 350 346 343 339 334 331 330
257 219 225 212 218 209 201 201 179 137 115 128 247 331 331 337 19 8 352 352 340 355 360 2 8 7 0 355 347 337 328 323 323 323 320 323 327 325
306 279 243 231 227 206 201 191 170 158 148 144 132 356 323 1 296 280 292 330 327 347 353 350 357 357 344 333 330 333 323 311 307 300 294 296 301 308
288 297 284 267 278 271 259 201 173 166 174 169 192 225 259 245 229 197 175 1 310 324 348 318 346 320 312 317 318 320 323 313 300 297 289 274 274 282
281 304 310 314 327 296 292 273 219 202 187 182 190 217 218 215 191 202 216 226 242 265 269 286 311 299 303 313 319 315 313 309 305 290 280 274 274 275
277 263 268 286 298 324 286 271 252 260 233 206 202 215 211 198 190 200 209 221 281 288 179 248 278 279 297 304 313 310 307 305 300 300 298 287 277 274
304 316 284 280 308 11 107 178 288 306 299 246 251 257 230 194 155 120 125 138 261 267 216 218 267 289 295 294 309 316 311 305 300 299 293 297 298 288
332 321 317 315 314 290 177 185 219 258 249 281 326 322 316 207 183 179 183 189 218 246 226 200 234 285 302 294 306 319 321 316 309 300 299 301 309 321
327 317 316 334 330 314 276 215 234 232 206 193 223 274 309 258 238 227 207 199 211 234 213 185 208 215 236 281 300 297 299 310 318 320 316 315 307 272
294 293 310 341 345 339 320 290 277 228 142 149 206 269 259 255 260 260 239 234 238 241 217 195 206 215 228 262 274 294 299 289 290 303 307 318 316 303
330 335 346 351 357 358 354 342 352 64 157 203 248 263 259 254 274 297 296 286 303 299 237 227 221 218 224 238 251 264 284 285 258 272 286 285 279 285
6 2 11 12 15 9 4 357 4 344 246 243 275 286 314 320 289 281 270 262 283 305 311 270 237 218 232 243 241 254 251 253 267 271 279 288 283 266
34 29 22 13 13 3 354 353 345 335 309 300 292 289 295 302 306 310 271 248 256 271 299 328 344 302 249 235 246 249 246 260 257 249 265 287 276 259
63 37 11 357 347 336 331 327 325 315 293 278 274 269 278 280 290 301 286 265 263 265 266 269 297 354 340 300 245 244 252 255 260 248 236 260 279 279
55 15 344 334 330 328 327 321 310 299 293 283 283 283 287 289 285 284 283 287 282 279 280 256 231 245 274 290 290 255 251 259 255 262 255 249 263 280
15 334 323 320 317 317 318 319 319 324 321 304 296 292 286 288 292 283 275 280 285 288 296 294 260 249 252 259 269 290 277 259 249 260 274 280 280 283
342 332 324 319 317 313 314 319 318 314 313 310 308 301 290 285 285 282 272 281 289 282 279 284 282 280 284 294 288 295 301 291 270 267 267 277 286 285
330 324 321 320 319 316 318 322 322 319 314 309 308 307 303 294 286 286 277 268 268 271 280 297 312 313 284 260 264 279 296 312 317 312 300 262 245 242
319 315 317 322 318 319 321 317 315 314 309 303 300 299 296 291 286 282 277 270 271 276 286 296 308 307 290 264 263 274 281 293 302 312 313 316 293 281
Height
1525 1526 1526 1526 1526 1526 1526 1526 1526 1524 1524 1524 1524 1523 1523 1523 1522 1522 1521 1521 1520 1519 1518 1518 1518 1517 1517 1516 1516 1516 1515 1515 1515 1514 1514 1514 1514 1513
1523 1524 1524 1524 1524 1524 1524 1524 1524 1523 1522 1522 1522 1522 1521 1521 1520 1520 1519 1519 1518 1518 1517 1517 1516 1516 1516 1516 1515 1514 1514 1514 1513 1513 1513 1513 1513 1512
1521 1521 1521 1521 1521 1522 1522 1522 1521 1521 1520 1520 1520 1519 1519 1519 1518 1518 1518 1517 1516 1516 1516 1516 1515 1515 1514 1514 1513 1513 1513 1512 1511 1511 1511 1511 1511 1511
1518 1519 1519 1519 1519 1519 1519 1519 1519 1519 1518 1517 1517 1517 1517 1516 1516 1516 1515 1515 1515 1515 1515 1514 1514 1513 1513 1512 1512 1511 1511 1510 1510 1509 1510 1510 1510 1510
1516 1516 1516 1516 1516 1516 1516 1516 1516 1516 1515 1515 1514 1514 1514 1514 1513 1513 1513 1513 1512 1513 1512 1512 1512 1512 1511 1510 1510 1509 1509 1508 1508 1507 1507 1507 1508 1508
1513 1513 1513 1513 1513 1513 1513 1513 1513 1513 1513 1512 1512 1511 1511 1511 1511 1511 1511 1511 1511 1511 1510 1510 1510 1510 1509 1508 1508 1507 1507 1506 1506 1505 1505 1505 1505 1505
1511 1510 1511 1511 1510 1510 1510 1510 1510 1510 1510 1509 1509 1509 1509 1509 1509 1509 1508 1508 1508 1508 1508 1508 1508 1507 1507 1506 1506 1505 1504 1504 1503 1503 1503 1503 1503 1503
1508 1508 1508 1508 1508 1508 1508 1508 1508 1507 1507 1506 1506 1506 1506 1506 1507 1507 1506 1505 1505 1507 1506 1506 1506 1505 1504 1504 1504 1503 1502 1501 1501 1500 1500 1500 1500 1500
1505 1505 1504 1505 1505 1505 1505 1505 1505 1504 1505 1504 1504 1504 1504 1504 1504 1504 1504 1504 1503 1504 1504 1503 1503 1502 1502 1501 1501 1500 1500 1499 1498 1498 1497 1497 1497 1497
1502 1502 1502 1502 1502 1502 1502 1501 1501 1501 1501 1502 1502 1502 1502 1502 1502 1502 1502 1502 1502 1502 1501 1500 1499 1499 1499 1499 1498 1498 1497 1496 1495 1495 1494 1494 1494 1494
1499 1499 1499 1499 1499 1499 1499 1498 1498 1498 1498 1499 1499 1499 1499 1499 1499 1499 1499 1499 1498 1498 1498 1497 1496 1496 1496 1495 1495 1495 1494 1493 1492 1492 1491 1491 1491 1491
1496 1496 1496 1496 1496 1495 1495 1495 1495 1495 1495 1495 1496 1496 1496 1496 1496 1496 1496 1496 1495 1495 1495 1495 1494 1493 1492 1492 1492 1492 1491 1490 1490 1489 1488 1488 1488 1488
1493 1493 1493 1493 1492 1492 1492 1492 1492 1492 1492 1492 1492 1492 1493 1492 1493 1493 1493 1493 1493 1493 1493 1492 1491 1491 1490 1489 1489 1489 1488 1487 1487 1486 1485 1485 1485 1484
1490 1490 1490 1490 1489 1489 1489 1489 1489 1489 1489 1489 1489 1489 1489 1489 1489 1490 1490 1490 1490 1490 1490 1489 1489 1488 1487 1486 1485 1485 1485 1485 1484 1483 1483 1482 1482 1481
1488 1488 1487 1487 1486 1485 1485 1485 1485 1485 1485 1485 1485 1486 1486 1486 1486 1486 1486 1486 1486 1486 1486 1486 1485 1485 1484 1483 1482 1482 1481 1481 1481 1480 1480 1479 1478 1478
1485 1485 1484 1484 1483 1482 1482 1482 1482 1482 1482 1482 1482 1482 1483 1482 1482 1482 1482 1482 1482 1481 1482 1482 1481 1481 1480 1480 1479 1478 1478 1477 1477 1477 1476 1476 1475 1475
1482 1482 1481 1480 1480 1480 1479 1479 1479 1478 1478 1478 1478 1478 1479 1479 1478 1478 1478 1478 1477 1476 1476 1477 1477 1477 1476 1476 1475 1474 1474 1474 1473 1473 1472 1471 1471 1471
1480 1479 1478 1478 1477 1477 1476 1475 1475 1475 1475 1475 1475 1475 1475 1474 1474 1474 1474 1474 1473 1472 1472 1472 1471 1471 1471 1471 1472 1470 1470 1469 1469 1469 1468 1467 1467 1467
1478 1477 1476 1476 1475 1474 1474 1473 1472 1472 1472 1471 1471 1471 1471 1471 1471 1470 1470 1469 1469 1468 1468 1468 1467 1467 1466 1465 1466 1467 1466 1465 1465 1465 1464 1464 1463 1463
1476 1475 1475 1474 1473 1472 1471 1471 1470 1469 1469 1468 1468 1468 1468 1467 1467 1466 1466 1466 1465 1465 1464 1464 1464 1464 1463 1463 1462 1462 1462 1462 1461 1460 1460 1459 1459 1459
1474 1473 1473 1472 1471 1470 1469 1468 1467 1466 1466 1465 1465 1465 1464 1464 1463 1463 1462 1462 1462 1461 1460 1460 1460 1461 1460 1460 1458 1457 1458 1458 1458 1457 1456 1455 1454 1454
1472 1471 1471 1470 1469 1468 1467 1466 1464 1464 1463 1462 1462 1461 1461 1461 1460 1459 1459 1459 1458 1458 1457 1457 1457 1456 1456 1455 1454 1453 1453 1453 1453 1453 1453 1452 1451 1450
1470 1469 1468 1467 1466 1465 1464 1463 1462 1461 1460 1459 1459 1458 1457 1457 1456 1456 1456 1455 1455 1454 1454 1453 1453 1452 1452 1452 1451 1450 1449 1449 1449 1449 1449 1449 1448 1448